User: anonymous   Login
Location: Scultetus-Sternwarte G�rlitz
(51.1356°N, 14.9514°E)
Time: 02:05:52
(UTC+02:00)
Language:

Iridium 3 - Orbit

View from above orbital plane
View from above orbital plane
View from above satellite
View from above satellite

Ground track
Ground track

The orbit data is extracted from the following two-line orbital elements,

1 25431U 98048A   15188.48342111  .00000074  00000-0  19476-4 0  9993
2 25431 086.3968 192.7596 0002389 094.0502 060.4077 14.34218628883741
Epoch (UTC): 07 July 2015 11:36:07
Eccentricity: 0.0002389
inclination: 86.3968°
perigee height: 776 km
apogee height: 779 km
right ascension of ascending node: 192.7596°
argument of perigee: 94.0502°
revolutions per day: 14.34218628
mean anomaly at epoch: 60.4077°
orbit number at epoch: 88374

The dashed part of the orbit path shows where the satellite is in the earth's shadow,  

DLR